EW1514 Weather Reports


time (UTC)temp
F
wind
direction
speed
knots
gust
knots
rain 1hr
in
rain 24hr
in
rain mn
in
humidity
%
barometer
mb
20260906073025 84 17 4.3 12.2 0.00 0.00 0.00 39 1017.5
20260906071522 84 351 5.2 10.4 0.00 0.00 0.00 39 1017.4
20260906070022 83 346 4.3 9.6 0.00 0.00 0.00 41 1017.3
20260906064512 82 15 3.5 12.2 0.00 0.00 0.00 41 1017.0
20260906063008 82 30 4.3 9.6 0.00 0.00 0.00 41 1017.0
20260906061509 82 38 2.6 4.3 0.00 0.00 0.00 41 1016.8
20260906060059 81 5 0.9 3.5 0.00 0.00 0.00 42 1016.8
20260906054607 79 65 0.0 0.9 0.00 0.00 0.00 44 1016.8
20260906053049 77 65 0.0 0.9 0.00 0.00 0.00 46 1016.6
20260906051546 76 29 0.0 0.9 0.00 0.00 0.00 48 1016.6
20260906050045 75 32 0.0 2.6 0.00 0.00 0.00 49 1016.6
20260906044538 73 76 0.0 1.7 0.00 0.00 0.00 52 1016.3
20260906043034 73 76 0.0 0.0 0.00 0.00 0.00 52 1016.1
20260906041532 73 76 0.9 2.6 0.00 0.00 0.00 51 1015.8
20260906040043 73 77 0.0 0.9 0.00 0.00 0.00 52 1015.7
20260906034543 73 77 0.9 5.2 0.00 0.00 0.00 52 1015.6
20260906033029 71 76 1.7 2.6 0.00 0.00 0.00 55 1015.6
20260906031558 72 76 0.0 0.0 0.00 0.00 0.00 55 1015.5
20260906030026 72 76 0.0 0.0 0.00 0.00 0.00 53 1015.3
20260906024549 72 76 0.0 0.0 0.00 0.00 0.00 53 1015.3
20260906023025 72 76 0.0 0.0 0.00 0.00 0.00 52 1015.2
20260906021524 72 76 0.0 0.9 0.00 0.00 0.00 52 1015.2
20260906020023 72 86 0.0 0.0 0.00 0.00 0.00 51 1015.3
20260906014522 72 86 0.0 0.0 0.00 0.00 0.00 50 1015.2
20260906013021 72 86 0.0 0.0 0.00 0.00 0.00 50 1015.4
20260906011520 73 86 0.0 0.0 0.00 0.00 0.00 49 1015.3
20260906010039 73 86 0.0 0.9 0.00 0.00 0.00 49 1015.2
20260906004517 73 91 0.0 0.9 0.00 0.00 0.00 50 1015.2
20260906003016 73 91 0.0 0.0 0.00 0.00 0.00 51 1015.2
20260906001516 74 91 0.0 1.7 0.00 0.00 0.00 49 1015.2
20260906000019 74 55 0.0 1.7 0.00 0.00 0.00 49 1015.4
20260905234512 74 80 0.0 1.7 0.00 0.00 0.00 50 1015.3
20260905233009 74 80 0.0 1.7 0.00 0.00 0.00 49 1015.3
20260905231507 74 80 0.0 1.7 0.00 0.00 0.00 48 1015.5
20260905230013 75 80 0.0 0.0 0.00 0.00 0.00 48 1015.5
20260905224515 75 80 0.0 2.6 0.00 0.00 0.00 46 1015.5
20260905223003 76 66 0.9 3.5 0.00 0.00 0.00 45 1015.5
20260905221505 76 56 0.9 2.6 0.00 0.00 0.00 44 1015.6
20260905220100 76 52 0.0 2.6 0.00 0.00 0.00 45 1015.5
20260905214558 76 85 0.9 2.6 0.00 0.00 0.00 45 1015.5
20260905213101 76 53 0.0 1.7 0.00 0.00 0.00 45 1015.7
20260905211607 77 53 0.9 2.6 0.00 0.00 0.00 46 1015.8
20260905204552 77 30 0.0 0.0 0.00 0.00 0.00 48 1015.8
20260905203050 78 30 0.0 0.0 0.00 0.00 0.00 49 1015.8
20260905201556 78 30 0.0 0.9 0.00 0.00 0.00 48 1015.8
20260905194549 78 89 0.0 2.6 0.00 0.00 0.00 49 1015.8
20260905191549 79 143 0.0 1.7 0.00 0.00 0.00 48 1015.8
20260905190047 80 145 0.0 0.9 0.00 0.00 0.00 46 1015.8
20260905184546 81 150 0.0 0.9 0.00 0.00 0.00 45 1015.8
20260905183046 82 171 0.0 0.9 0.00 0.00 0.00 44 1015.7
20260905181545 82 171 0.0 2.6 0.00 0.00 0.00 43 1015.5
20260905180049 83 162 0.9 4.3 0.00 0.00 0.00 43 1015.4
20260905174550 83 156 0.0 4.3 0.00 0.00 0.00 43 1015.3
20260905173056 84 188 0.9 4.3 0.00 0.00 0.00 45 1015.1
20260905171541 84 263 1.7 6.1 0.00 0.00 0.00 47 1015.1
20260905170041 85 232 2.6 6.1 0.00 0.00 0.00 46 1015.0
20260905164540 86 255 4.3 7.8 0.00 0.00 0.00 45 1014.9
20260905163040 87 217 3.5 7.8 0.00 0.00 0.00 41 1014.8
20260905161539 87 205 4.3 7.8 0.00 0.00 0.00 38 1014.9
20260905160039 88 209 3.5 7.8 0.00 0.00 0.00 39 1014.9
20260905154538 88 251 2.6 7.8 0.00 0.00 0.00 36 1014.8
20260905153037 89 211 3.5 7.0 0.00 0.00 0.00 36 1014.8
20260905151546 90 236 4.3 7.8 0.00 0.00 0.00 36 1014.7
20260905150036 91 162 1.7 7.0 0.00 0.00 0.00 33 1014.7
20260905144535 92 260 3.5 7.8 0.00 0.00 0.00 34 1014.7
20260905143045 92 163 2.6 7.0 0.00 0.00 0.00 31 1014.8
20260905141532 93 222 4.3 9.6 0.00 0.00 0.00 31 1014.9
20260905140026 93 221 4.3 6.1 0.00 0.00 0.00 28 1015.0
20260905134532 93 184 3.5 8.7 0.00 0.00 0.00 30 1015.1
20260905133021 93 232 3.5 7.0 0.00 0.00 0.00 29 1015.3
20260905131522 93 231 3.5 8.7 0.00 0.00 0.00 30 1015.4
20260905130017 93 166 1.7 6.1 0.00 0.00 0.00 30 1015.6
20260905124524 93 194 3.5 7.0 0.00 0.00 0.00 31 1015.7
20260905123014 93 210 3.5 9.6 0.00 0.00 0.00 31 1015.9
20260905121514 92 224 4.3 7.0 0.00 0.00 0.00 31 1016.1
20260905120012 93 259 6.1 8.7 0.00 0.00 0.00 31 1016.2
20260905114511 92 158 2.6 7.0 0.00 0.00 0.00 32 1016.3
20260905113030 93 248 2.6 7.0 0.00 0.00 0.00 32 1016.4
20260905111527 93 207 1.7 3.5 0.00 0.00 0.00 33 1016.5
20260905110025 92 233 2.6 7.0 0.00 0.00 0.00 33 1016.6
20260905104526 92 235 1.7 6.1 0.00 0.00 0.00 34 1016.8
20260905103022 91 219 3.5 8.7 0.00 0.00 0.00 35 1016.9
20260905101525 91 298 1.7 7.8 0.00 0.00 0.00 36 1017.0
20260905100017 91 218 1.7 5.2 0.00 0.00 0.00 35 1017.2
20260905094514 90 270 1.7 7.0 0.00 0.00 0.00 37 1017.4
20260905093011 90 263 3.5 7.0 0.00 0.00 0.00 37 1017.4
20260905090006 88 308 0.0 3.5 0.00 0.00 0.00 41 1017.7
20260905084502 87 234 0.9 3.5 0.00 0.00 0.00 43 1017.8
20260905083059 86 276 0.0 4.3 0.00 0.00 0.00 46 1017.8
20260905081554 85 214 1.7 6.1 0.00 0.00 0.00 47 1017.8
20260905080055 84 254 1.7 6.1 0.00 0.00 0.00 50 1017.9
20260905074546 84 255 3.5 6.1 0.00 0.00 0.00 51 1017.8